Weather observations for the past three days for
Hermiston, Hermiston Municipal Airport
Metric (Imperial)
Date Time (pdt) Wind (kph) Vis. (km) Weather Sky Cond. Temperature (ºC) Relative Humidity Wind Chill (°C) Heat Index (°C) Pressure Precipitation (cm)
Air Dwpt 6 hour altimeter (cm) sea level (mb) 1 hr 3 hr 6 hr
Max. Min.
07 13:53 W 17 G 28 16.09 Fair CLR 24.4 -2.2 17% 24 76.1 1014.1
07 12:53 W 15 16.09 Fair CLR 23.3 2.8 26% 76.15 1014.7
07 11:53 SW 22 G 33 16.09 Fair CLR 21.7 4.4 32% 76.17 1015.1
07 10:53 W 13 16.09 Fair CLR 20 5.6 20.6 12.8 39% 76.2 1015.6
07 09:53 W 20 16.09 Fair CLR 18.3 6.7 47% 76.25 1016.1
07 08:53 W 26 G 33 16.09 Fair CLR 17.2 6.7 50% 76.25 1016.2
07 07:53 SW 26 G 43 16.09 Fair CLR 15 7.2 60% 76.23 1016.0
07 06:53 SW 20 16.09 Fair CLR 13.9 8.3 69% 76.2 1015.4
07 05:53 SW 20 G 33 16.09 Fair CLR 12.8 8.3 74% 76.15 1014.9
07 04:53 SW 19 16.09 Fair CLR 13.9 8.3 18.3 13.9 69% 76.15 1014.7
07 03:53 W 26 G 46 16.09 Fair CLR 14.4 8.3 67% 76.1 1014.2
07 02:53 SW 24 G 43 16.09 Light Rain CLR 15 9.4 69% 76.12 1014.2
07 01:53 SW 22 G 33 16.09 Fair CLR 15.6 8.9 65% 76.12 1014.4
07 00:53 SW 22 G 37 16.09 Light Rain CLR 16.1 8.9 63% 76.1 1014.0
06 23:53 SW 28 G 46 16.09 Fair CLR 17.2 7.8 54% 76.07 1013.7
06 22:53 SW 30 G 43 16.09 Fair CLR 18.3 7.2 27.2 18.3 49% 76.05 1013.5
06 21:53 SW 30 G 48 16.09 Fair CLR 18.9 7.2 47% 76.02 1013.2
06 20:53 SW 26 G 44 16.09 Fair CLR 20 7.2 44% 76 1012.7
06 19:53 W 24 G 41 16.09 Fair CLR 21.7 8.3 42% 75.95 1012.0
06 18:53 W 28 G 44 16.09 Fair CLR 23.3 8.9 40% 75.9 1011.4
06 17:53 SW 20 G 44 16.09 Fair CLR 25 8.3 35% 26 75.87 1011.1
06 16:53 W 28 G 46 16.09 Fair CLR 27.2 8.9 28.9 23.3 32% 27 75.84 1010.8
06 15:53 W 31 G 43 16.09 Fair CLR 27.2 9.4 33% 27 75.87 1011.1
06 14:53 SW 24 G 41 16.09 Fair CLR 28.3 9.4 31% 27 75.92 1011.5
06 13:53 W 26 G 43 16.09 Fair CLR 27.8 8.9 31% 27 75.97 1012.3
06 12:53 W 26 16.09 Fair CLR 27.8 8.9 31% 27 75.97 1012.3
06 11:53 SW 24 G 41 16.09 Fair CLR 25.6 10 37% 26 76 1012.8
06 10:53 SW 24 G 43 16.09 Fair CLR 23.3 10 23.3 13.3 43% 76.07 1013.9
06 09:53 W 22 G 43 16.09 Fair CLR 21.1 9.4 47% 76.12 1014.5
06 08:53 W 31 G 44 16.09 Fair CLR 19.4 9.4 53% 76.12 1014.5
06 07:53 SW 24 G 35 16.09 Fair CLR 17.8 9.4 58% 76.12 1014.6
06 06:53 SW 19 16.09 Fair CLR 16.1 9.4 65% 76.1 1014.0
06 03:53 SW 11 16.09 Fair CLR 15.6 8.9 65% 75.97 1012.2
06 02:53 SW 7 16.09 Fair CLR 15 8.9 67% 75.92 1011.6
06 01:53 W 9 16.09 Fair CLR 14.4 9.4 72% 75.9 1011.4
06 00:53 SW 7 16.09 Fair CLR 16.1 8.3 60% 75.87 1011.2
05 23:53 Calm 16.09 Fair CLR 15 8.3 64% 75.84 1010.7
05 22:53 S 13 16.09 Fair CLR 16.7 8.9 28.9 16.7 60% 75.79 1009.9
05 21:53 S 15 16.09 Fair CLR 18.3 10 59% 75.77 1009.7
05 20:53 S 7 16.09 Fair CLR 20 9.4 51% 75.74 1009.3
05 19:53 SE 11 16.09 Fair CLR 23.9 9.4 40% 25 75.69 1008.7
05 18:53 E 6 16.09 Fair CLR 27.8 7.2 27% 27 75.69 1008.6
05 17:53 NE 9 16.09 Fair CLR 28.3 7.2 26% 27 75.69 1008.7
05 16:53 N 9 16.09 Fair CLR 28.9 6.7 29.4 22.8 25% 28 75.72 1008.9
05 15:53 E 11 16.09 Fair CLR 28.9 7.8 27% 28 75.74 1009.4
05 14:53 Vrbl 6 16.09 Fair CLR 28.3 6.7 25% 27 75.77 1009.7
05 13:53 N 13 16.09 Fair CLR 27.8 7.2 27% 27 75.82 1010.2
05 12:53 NW 13 16.09 Fair CLR 26.1 8.9 34% 26 75.84 1010.7
05 11:53 Vrbl 9 16.09 Fair CLR 25.6 10 37% 26 75.87 1010.8
05 10:53 Vrbl 11 16.09 Fair CLR 23.9 10 23.9 16.1 42% 25 75.87 1011.0
05 09:53 W 13 16.09 Fair CLR 22.2 10 46% 75.84 1010.8
05 08:53 W 19 16.09 Fair CLR 20 10.6 55% 75.84 1010.6
05 07:53 SW 20 16.09 Fair CLR 18.9 10.6 59% 75.82 1010.2
05 06:53 SW 9 16.09 Fair CLR 17.8 10.6 63% 75.77 1009.6
05 05:53 SW 11 16.09 Fair CLR 16.1 10.6 70% 75.72 1008.8
05 04:53 W 9 16.09 Fair CLR 17.2 11.1 18.9 14.4 68% 75.64 1008.0
05 03:53 SW 11 16.09 Fair CLR 18.3 11.1 63% 75.62 1007.3
05 02:53 SW 15 16.09 Fair CLR 18.9 10.6 59% 75.57 1006.9
05 01:53 SW 7 16.09 Fair CLR 18.3 10.6 61% 75.57 1006.9
05 00:53 S 9 16.09 Fair CLR 15 10.6 75% 75.51 1006.3
04 23:53 S 7 16.09 Partly Cloudy SCT120 17.8 10.6 63% 75.49 1005.8
04 22:53 S 7 16.09 Fair CLR 17.2 8.9 31.1 16.7 58% 75.46 1005.4
04 21:53 S 13 16.09 Mostly Cloudy BKN120 18.9 8.9 52% 75.41 1005.0
04 20:53 SW 13 16.09 Fair CLR 22.8 5.6 33% 75.39 1004.5
04 19:53 S 7 16.09 Fair CLR 24.4 7.2 33% 25 75.34 1004.0
04 18:53 E 7 16.09 Fair CLR 28.9 6.1 24% 27 75.36 1004.2
04 17:53 E 6 16.09 Fair CLR 30.6 3.9 18% 29 75.39 1004.6
04 16:53 SW 9 16.09 Fair CLR 30.6 5 31.1 23.3 20% 29 75.39 1004.6
04 15:53 Calm 16.09 Fair CLR 30 3.9 19% 28 75.44 1005.1
04 14:53 N 11 16.09 Fair CLR 30 5.6 21% 28 75.49 1005.9
Date Time (pdt) Wind (kph) Vis. (km) Weather Sky Cond. Air Dwpt Max. Min. Relative Humidity Wind Chill (°C) Heat Index (°C) altimeter (cm) sea level (mb) 1 hr 3 hr 6 hr
6 hour
Temperature (ºC) Pressure Precipitation (cm)